Location: Newark
(49.3667°N, 21.6167°E)
Time: 12:33:39
(UTC+00:00)

Envisat - Pass Details

Date: 10 December 2019
Orbit: 764 x 766 km, 98.1° (Epoch: 18 January)

Event Time Altitude Azimuth Distance (km) Brightness Sun altitude
Rises 15:56:48 0° 153° (SSE) 3,222 6.2 -12.6°
Reaches altitude 10° 15:59:07 10° 150° (SSE) 2,300 5.4 -13.0°
Maximum altitude 16:04:06 61° 71° (ENE) 872 3.0 -13.7°
Drops below altitude 10° 16:09:08 10° 352° (N) 2,316 5.4 -14.5°
Sets 16:11:28 0° 349° (N) 3,247 6.2 -14.9°
